Powrót do katalogu

YUNYAO-1 59

AktywnyPogodaSSO
NORAD 63295·PAYLOAD·🇨🇳 China
Ta nazwa satelity nie została jeszcze potwierdzona przez oficjalne źródła.

Wystrzelony Mar 17, 2025 z Jiuquan Satellite Launch Center

Loading…

Następne Przeloty (najbliższe 24 godziny)

TLE

ŚwieżeSource: Space-Track

Epoka: Sep 14, 2026, 23:16 UTC

1 63295U 25055E   26257.96960611  .00007487  00000-0  41159-3 0  9991
2 63295  97.6626  38.1630 0023484 144.8190 215.4597 15.14146545 82595

Śledź YUNYAO-1 59 w czasie rzeczywistym z AllMySat

Download on the App Store